Weather History for Pompano Beach, FL

Change the Weather History Date:

Saturday, January 26, 2013

  Actual Average Record
Temperature  
Mean Temperature 66 °F -  
Max Temperature 75 °F 77 °F 84 °F (1984)
Min Temperature 57 °F 57 °F 34 °F (1951)
Cooling Degree Days 1    
Growing Degree Days 16 (Base 50)    
Moisture  
Dew Point 58 °F    
Average Humidity 71    
Maximum Humidity 97    
Minimum Humidity 48    
Precipitation  
Precipitation 0.00 in - - ()
Sea Level Pressure  
Sea Level Pressure 30.22 in    
Wind  
Wind Speed 5 mph (NNE)    
Max Wind Speed 12 mph    
Max Gust Speed -    
Visibility 9 miles    
Events      
Averages and records for this station are not official NWS values.
T = Trace of Precipitation, MM = Missing Value Source: NWS Daily Summary

Daily Weather History Graph

Daily Weather History Graph

Search for Another Location

Airport:

Trip Planner

Search our weather history database for the weather conditions in past years. The results will help you decide how hot, cold, wet, or windy it might be!

Date:

Astronomy

Jan. 26, 2013 Rise Set
Actual Time 7:07 AM EST 5:59 PM EST
Civil Twilight 6:42 AM EST 6:23 PM EST
Nautical Twilight 6:14 AM EST 6:51 PM EST
Astronomical Twilight 5:47 AM EST 7:18 PM EST
Moon 5:47 PM EST (1/26) 6:27 AM EST (1/26)
Length of Visible Light 11h 40m
Length of Day
10h 51m
Full, 100% of the Moon is Illuminated
Jan 26
Full
Jan 26
Full
Feb 3
Last Quarter
Feb 10
New
Feb 17
First Quarter

Hourly Weather History & Observations

Time (EST) Temp. Dew Point Humidity Pressure Visibility Wind Dir Wind Speed Gust Speed Precip Events Conditions
12:53 AM 62.1 °F 57.9 °F 86% 30.22 in 8.0 mi NNW 3.5 mph - N/A   Clear
1:53 AM 62.1 °F 59.0 °F 90% 30.22 in 8.0 mi Calm Calm - N/A   Clear
2:53 AM 61.0 °F 57.9 °F 90% 30.20 in 8.0 mi Calm Calm - N/A   Clear
3:53 AM 57.9 °F 57.0 °F 97% 30.20 in 7.0 mi Calm Calm - N/A   Clear
4:53 AM 60.1 °F 57.9 °F 93% 30.21 in 9.0 mi NW 6.9 mph - N/A   Clear
5:53 AM 59.0 °F 57.9 °F 96% 30.22 in 8.0 mi NNW 6.9 mph - N/A   Clear
6:53 AM 59.0 °F 55.9 °F 90% 30.23 in 8.0 mi NNW 6.9 mph - N/A   Clear
7:53 AM 61.0 °F 53.1 °F 75% 30.25 in 10.0 mi NNW 6.9 mph - N/A   Clear
8:53 AM 66.9 °F 48.9 °F 52% 30.26 in 10.0 mi North 10.4 mph - N/A   Clear
9:53 AM 72.0 °F 51.1 °F 48% 30.27 in 10.0 mi North 11.5 mph - N/A   Clear
10:53 AM 73.9 °F 55.9 °F 53% 30.27 in 10.0 mi North 6.9 mph - N/A   Clear
11:53 AM 75.9 °F 57.0 °F 52% 30.25 in 10.0 mi Variable 4.6 mph - N/A   Clear
12:53 PM 75.9 °F 57.0 °F 52% 30.21 in 10.0 mi East 8.1 mph - N/A   Clear
1:53 PM 75.0 °F 57.0 °F 53% 30.19 in 10.0 mi ENE 9.2 mph - N/A   Clear
2:53 PM 75.0 °F 59.0 °F 57% 30.19 in 10.0 mi ENE 11.5 mph - N/A   Clear
3:53 PM 75.0 °F 59.0 °F 57% 30.18 in 10.0 mi ENE 10.4 mph - N/A   Clear
4:53 PM 73.0 °F 59.0 °F 61% 30.19 in 10.0 mi ENE 9.2 mph - N/A   Clear
5:53 PM 72.0 °F 60.1 °F 66% 30.19 in 10.0 mi ENE 5.8 mph - N/A   Clear
6:53 PM 71.1 °F 60.1 °F 68% 30.20 in 10.0 mi ENE 5.8 mph - N/A   Clear
7:53 PM 71.1 °F 61.0 °F 70% 30.21 in 10.0 mi NE 5.8 mph - N/A   Clear
8:53 PM 69.1 °F 61.0 °F 75% 30.21 in 10.0 mi ENE 5.8 mph - N/A   Clear
9:53 PM 69.1 °F 61.0 °F 75% 30.22 in 10.0 mi Calm Calm - N/A   Partly Cloudy
10:53 PM 70.0 °F 61.0 °F 73% 30.23 in 10.0 mi East 4.6 mph - N/A   Partly Cloudy
11:53 PM 71.1 °F 62.1 °F 73% 30.22 in 10.0 mi East 8.1 mph - N/A   Mostly Cloudy